Location: Soapstone Prairie Natural Area
(40.9437°N, 105.0829°W)
Time: 10:52:42
(UTC-06:00)

ISS - Visible Passes

Search period start: 25 May 2016 00:00
Search period end: 04 June 2016 00:00
Orbit: 402 x 404 km, 51.6° (Epoch: 25 May)

Date Brightness Start Highest point End Pass type
(mag) Time Alt. Az. Time Alt. Az. Time Alt. Az.
25 May -0.5 00:28:19 17° NNE 00:28:19 17° NNE 00:29:34 10° NNE visible
25 May 0.0 02:02:37 10° NNW 02:04:11 13° N 02:05:46 10° NNE visible
25 May -0.4 03:39:11 10° NNW 03:41:37 19° NNE 03:44:02 10° ENE visible
25 May -0.9 23:35:41 20° NNE 23:35:41 20° NNE 23:37:00 10° NE visible
26 May 0.0 01:09:19 10° NW 01:11:07 14° N 01:12:55 10° NNE visible
26 May -0.1 02:46:35 10° NNW 02:48:36 15° NNE 02:50:36 10° NE visible
26 May -2.2 04:22:29 10° NW 04:25:39 47° NNE 04:28:48 10° ESE visible
26 May -1.6 21:03:07 10° SSE 21:05:01 15° SE 21:06:55 10° E visible
26 May -2.9 22:37:54 10° WSW 22:41:07 61° NNW 22:44:22 10° NE visible
27 May -0.2 00:15:53 10° WNW 00:18:05 16° NNW 00:20:16 10° NNE visible
27 May 0.1 01:53:52 10° NNW 01:55:32 13° N 01:57:13 10° NE visible
27 May -1.2 03:29:52 10° NW 03:32:47 29° NNE 03:35:42 10° E visible
27 May -3.5 21:45:07 10° SW 21:48:21 70° SE 21:51:37 10° ENE visible
27 May -0.6 23:22:29 10° WNW 23:25:05 21° NNW 23:27:41 10° NNE visible
28 May 0.2 01:00:54 10° NNW 01:02:27 13° N 01:04:00 10° NNE visible
28 May -0.6 02:37:17 10° NNW 02:39:51 21° NNE 02:42:23 10° ENE visible
28 May -3.5 04:13:19 10° WNW 04:16:35 76° SW 04:19:49 10° SE visible
28 May -2.7 20:52:41 10° SSW 20:55:41 34° SE 20:58:41 10° ENE visible
28 May -1.3 22:29:11 10° W 22:32:08 31° NNW 22:35:06 10° NE visible
29 May 0.1 00:07:39 10° NW 00:09:22 13° N 00:11:04 10° NNE visible
29 May -0.2 01:44:41 10° NNW 01:46:50 16° NNE 01:48:57 10° NE visible
29 May -2.7 03:20:35 10° NW 03:23:48 56° NNE 03:27:01 10° ESE visible
29 May -2.4 21:36:04 10° WSW 21:39:16 51° NNW 21:42:27 10° NE visible
29 May -0.1 23:14:13 10° NW 23:16:17 15° NNW 23:18:22 10° NNE visible
30 May 0.0 00:52:00 10° NNW 00:53:45 14° N 00:55:31 10° NE visible
30 May -1.6 02:27:57 10° NW 02:30:57 33° NNE 02:33:57 10° E visible
30 May -2.6 04:04:27 10° WNW 04:07:22 30° SW 04:10:16 10° SSE visible
30 May -0.4 22:20:46 10° WNW 22:23:15 20° NNW 22:25:45 10° NNE visible
30 May 0.0 23:59:06 10° NNW 00:00:39 13° N 00:02:13 10° NNE visible
31 May -0.9 01:35:21 10° NNW 01:38:00 22° NNE 01:38:22 22° NNE visible
31 May -1.0 21:27:25 10° W 21:30:16 27° NNW 21:33:09 10° NE visible
31 May 0.0 23:05:54 10° NW 23:07:33 13° N 23:09:11 10° NNE visible
01 Jun -0.5 00:42:44 10° NNW 00:45:00 17° NNE 00:46:02 15° NE visible
01 Jun -0.2 22:12:30 10° NW 22:14:27 15° N 22:16:24 10° NNE visible
01 Jun -0.2 23:50:04 10° NNW 23:51:56 14° N 23:53:47 10° NE visible
02 Jun -0.6 01:25:58 10° NW 01:26:55 17° NNW 01:26:55 17° NNW visible
02 Jun -0.4 21:19:01 10° WNW 21:21:23 18° NNW 21:23:45 10° NNE visible
02 Jun -0.2 22:57:13 10° NNW 22:58:49 13° N 23:00:24 10° NNE visible
03 Jun -0.9 00:33:21 10° NW 00:35:29 23° N 00:35:29 23° N visible
03 Jun -0.2 22:04:06 10° NNW 22:05:41 13° N 22:07:16 10° NNE visible
03 Jun -0.8 23:40:44 10° NNW 23:43:07 18° NNE 23:44:10 16° NE visible
